Regional Weather Roundup
Issued by NWS

Home | Current Version | Previous Version | Text Only | Print | Product List | Glossary On
Versions: 1 2 3 4 5 6 7 8 9 10 11 12 13 14 15 16 17 18 19 20 21 22 23 24 25 26 27
000
ASCA42 TJSJ 281410
RWRPR
PUERTO RICO/U.S. VIRGIN ISLANDS HOURLY WEATHER ROUNDUP
NATIONAL WEATHER SERVICE SAN JUAN PR
1000 AM AST SAT MAY 28 2016

PRZ001-004-281500-
PUERTO RICO

CITY           SKY/WX    TMP DP  RH WIND       PRES   REMARKS
SAN JUAN LMM   PTSUNNY   82  79  89 E10       30.03S HX  93
CEIBA          MOSUNNY   84  77  79 E14       30.06S HX  94
$$

PRZ006-007-281500-
U.S. VIRGIN ISLANDS

CITY           SKY/WX    TMP DP  RH WIND       PRES   REMARKS
CHARLOTTE AMA  MOSUNNY   86  75  70 E15       30.03R HX  95
CHRISTIANSTED  LGT RAIN  82  75  78 E14       30.05R
$$

HOURLY WEATHER ROUNDUP FOR THE NEWS MEDIA

CITY           SKY/WX    TMP DP  RH WIND       PRES   REMARKS
ORLANDO        SUNNY     81  69  67 VRB7      30.05S
NEW YORK       MOSUNNY   74  61  63 S9        30.14S
NEWARK         MOSUNNY   82  64  54 SW9       30.12S
CHICAGO        CLOUDY    72  65  78 S17       29.89R
HARTFORD       SUNNY     77  64  64 SW6       30.10S
BOSTON         CLOUDY    79  65  62 W6        30.07F
DALLAS         PTSUNNY   69  64  84 SW5       29.94R
PHILADELPHIA   MOSUNNY   78  63  59 SW8       30.16S
LOS ANGELES    CLOUDY    60  55  83 W3        29.87R
WASHINGTON DC  FAIR      77  65  66 S5        30.16S



USA.gov is the U.S. government's official web portal to all federal, state and local government web resources and services.